Tracking 35237 objects as of 4-Sep-2026
HD Live streaming from Space Station
objects crossing your sky now

INSAT 3DS

Track INSAT 3DS now!


NORAD ID: 58990
Int'l Code: 2024-033A
Launch date: February 17, 2024
Source: India (IND)
Launch site: SRIHARIKOTA (SRI)
Your satellite tracking list
Your tracking list is empty




NASA's NSSDC Master Catalog

Two Line Element Set (TLE):
1 58990U 24033A   26247.61205339 -.00000163  00000-0  00000+0 0  9993
2 58990   0.0620 264.8845 0001419 288.1305  93.1440  1.00269803 47865
Source of the keplerian elements: AFSPC